^^
Grace C. Lehan Memorial Weather Station Historical Data
Daily Summary for May 9, 2022 Units:  English    Metric   Both
Daily Weekly Monthly Yearly
  High: Low: Average:
Temperature: 80 °F 79.5 °F 79.7 °F
Dew Point: 75.1 °F 74.7 °F 74.9 °F
Humidity: 86% 84% 86%
Wind Speed: 0.5mph 0mph 0.1mph
Wind Gust: 5mph - -
Wind- - WSW
Pressure: 29.85 in 29.82 in -
Precipitation: 0.00 in    
 
 
Tabular Data for May 9, 2022
Time Temperature Dew Point Pressure Wind Wind Speed Wind Gust Humidity Rainfall Rate (Hourly) solar
00:00 80 °F 74.7 °F 29.85 in Calm   1 mph 84% 0.00 in 0 W/m2
00:09 79.9 °F 74.7 °F 29.85 in Calm     84% 0.00 in 0 W/m2
00:14 79.9 °F 74.9 °F 29.85 in Calm     84.7% 0.00 in 0 W/m2
00:19 79.8 °F 74.9 °F 29.85 in Calm     85% 0.00 in 0 W/m2
00:24 79.8 °F 74.9 °F 29.85 in Calm     85% 0.00 in 0 W/m2
00:29 79.8 °F 74.9 °F 29.85 in WSW 0.3 mph 5 mph 85% 0.00 in 0 W/m2
00:34 79.8 °F 74.9 °F 29.84 in Calm   5 mph 85% 0.00 in 0 W/m2
00:39 79.8 °F 74.9 °F 29.84 in Calm   1 mph 85% 0.00 in 0 W/m2
00:44 79.8 °F 74.9 °F 29.84 in SW 0.1 mph 2 mph 85% 0.00 in 0 W/m2
00:49 79.7 °F 74.8 °F 29.84 in SW 0.5 mph 4 mph 85% 0.00 in 0 W/m2
00:54 79.7 °F 74.8 °F 29.84 in SW 0.2 mph 4 mph 85% 0.00 in 0 W/m2
00:59 79.7 °F 74.8 °F 29.84 in Calm   4 mph 85% 0.00 in 0 W/m2
01:04 79.7 °F 74.8 °F 29.84 in SW 0.2 mph 4 mph 85% 0.00 in 0 W/m2
01:09 79.7 °F 74.8 °F 29.84 in SW 0.2 mph 3 mph 85% 0.00 in 0 W/m2
01:14 79.7 °F 74.8 °F 29.84 in Calm   3 mph 85% 0.00 in 0 W/m2
01:19 79.7 °F 74.8 °F 29.83 in SW 0.1 mph 3 mph 85% 0.00 in 0 W/m2
01:24 79.7 °F 74.8 °F 29.83 in SW 0.3 mph 4 mph 85% 0.00 in 0 W/m2
01:29 79.7 °F 74.8 °F 29.83 in Calm   4 mph 85% 0.00 in 0 W/m2
01:34 79.7 °F 74.8 °F 29.83 in SW 0.1 mph 4 mph 85% 0.00 in 0 W/m2
01:39 79.6 °F 74.7 °F 29.83 in Calm   2 mph 85% 0.00 in 0 W/m2
01:44 79.6 °F 74.7 °F 29.83 in Calm   2 mph 85% 0.00 in 0 W/m2
01:49 79.6 °F 75 °F 29.83 in Calm   2 mph 85.9% 0.00 in 0 W/m2
01:54 79.6 °F 75.1 °F 29.83 in Calm   2 mph 86% 0.00 in 0 W/m2
01:59 79.6 °F 75.1 °F 29.83 in Calm   2 mph 86% 0.00 in 0 W/m2
02:04 79.6 °F 75.1 °F 29.83 in Calm   2 mph 86% 0.00 in 0 W/m2
02:09 79.6 °F 75.1 °F 29.83 in Calm   1 mph 86% 0.00 in 0 W/m2
02:14 79.6 °F 75.1 °F 29.82 in Calm   1 mph 86% 0.00 in 0 W/m2
02:19 79.6 °F 75.1 °F 29.82 in Calm   1 mph 86% 0.00 in 0 W/m2
02:24 79.6 °F 75 °F 29.82 in WSW 0.3 mph 3 mph 86% 0.00 in 0 W/m2
02:29 79.5 °F 75 °F 29.82 in Calm   3 mph 86% 0.00 in 0 W/m2
02:34 79.5 °F 75 °F 29.82 in Calm   3 mph 86% 0.00 in 0 W/m2
02:39 79.5 °F 75 °F 29.82 in WSW 0.1 mph 2 mph 86% 0.00 in 0 W/m2
02:44 79.6 °F 75 °F 29.82 in Calm   2 mph 86% 0.00 in 0 W/m2
02:49 79.6 °F 75.1 °F 29.82 in Calm   2 mph 86% 0.00 in 0 W/m2
02:54 79.6 °F 75.1 °F 29.82 in Calm   2 mph 86% 0.00 in 0 W/m2
02:59 79.6 °F 75.1 °F 29.82 in Calm   2 mph 86% 0.00 in 0 W/m2
03:04 79.6 °F 75.1 °F 29.82 in Calm   2 mph 86% 0.00 in 0 W/m2
03:09 79.6 °F 75.1 °F 29.82 in Calm     86% 0.00 in 0 W/m2
03:14 79.6 °F 75.1 °F 29.82 in Calm   1 mph 86% 0.00 in 0 W/m2
03:19 79.6 °F 75 °F 29.82 in Calm   1 mph 86% 0.00 in 0 W/m2
03:24 79.5 °F 75 °F 29.82 in WSW 0.1 mph 2 mph 86% 0.00 in 0 W/m2
03:29 79.5 °F 74.9 °F 29.82 in Calm   2 mph 86% 0.00 in 0 W/m2
03:33 79.5 °F 74.9 °F 29.82 in Calm   2 mph 86% 0.00 in 0 W/m2
Hartford County Weather
Compliments of Weather Underground - 2 mb